INTELSAT 28 (IS-28)

Last updated on Sat Aug 15 2026 00:02:58 GMT+0000 (Coordinated Universal Time)

1 37392U 11016A 26226.41910741 -.00000240 00000+0 00000+0 0 9993 2 37392 1.9522 81.8722 0003704 68.6582 291.4796 1.00273937 53864
UTC large
Height (km)
Speed (km/s)
/
Latitude / Longitude
Inclination (degrees)
Orbital Period (minutes)
Azimuth
Elevation
Range (km)
Doppler Factor

Next 0 passes for location: London (51.5072 / 0.1276)

No passes found over London.
INTELSAT 28 (IS-28)